Wind_Speed
42 43 44 44 45 46 46 47 46 47 48 48 48 49 49 49 49 50 50 48 48 49 49 50 51 50 50 50 49 48 48 48 48 46 46 43 43 44 44 43 44 44 44
41 43 44 44 44 45 46 47 46 47 48 49 48 49 49 50 51 51 51 49 49 49 49 49 50 51 51 51 51 49 49 48 48 47 47 46 45 46 45 44 44 45 45
41 42 43 43 45 46 46 46 46 47 48 48 48 49 50 51 52 52 51 51 51 50 49 49 50 51 51 51 51 51 50 50 49 48 47 47 46 47 47 46 45 45 45
41 41 42 43 45 46 46 46 47 47 47 48 48 49 51 52 53 53 53 52 52 51 50 50 50 52 52 51 51 52 52 51 51 50 48 48 47 46 47 47 47 46 46
40 41 42 43 44 46 46 47 47 48 48 48 48 48 50 52 53 54 54 53 52 52 51 50 50 50 50 51 52 52 53 53 52 51 51 50 49 48 48 47 48 47 47
39 41 42 43 43 44 45 46 47 48 49 49 49 49 50 52 53 54 54 53 53 53 53 52 51 52 52 52 52 53 53 53 53 52 52 52 51 50 51 50 50 50 49
39 40 40 41 42 43 44 44 46 47 47 48 50 49 49 50 51 52 53 52 52 52 53 52 50 51 52 53 53 53 53 54 53 53 52 52 52 52 53 53 53 52 52
38 38 39 39 40 41 42 43 44 45 45 47 47 49 48 48 48 49 50 50 50 51 52 52 51 51 52 53 53 53 53 54 54 54 53 52 53 53 53 53 53 52 53
38 37 37 37 38 39 39 40 40 42 43 44 44 46 46 47 47 48 48 47 48 49 51 52 52 53 53 53 53 52 52 53 54 54 54 54 54 54 54 54 53 52 51
36 37 36 36 36 36 37 38 39 40 41 43 43 43 44 44 45 47 47 47 47 47 49 51 51 52 52 52 52 52 52 53 53 54 54 54 55 55 54 52 52 53 53
35 35 36 36 35 35 35 36 37 38 40 41 42 42 43 44 43 44 45 46 46 46 46 47 48 49 50 50 51 51 52 52 52 52 53 53 53 53 53 53 53 53 54
34 34 34 35 35 35 36 37 37 38 39 40 41 41 41 42 42 43 43 44 45 44 45 46 47 48 49 49 50 50 50 51 52 52 51 51 52 51 51 52 52 52 52
32 32 32 33 34 35 36 36 36 36 37 38 39 40 40 40 42 43 43 44 44 44 45 47 48 48 49 49 49 48 48 49 50 50 50 50 50 51 50 51 51 51 51
30 30 30 31 33 34 35 35 34 35 36 36 37 38 38 38 39 41 41 42 44 44 44 46 48 49 49 48 48 48 48 48 48 48 49 49 49 49 49 51 51 52 52
25 26 28 29 29 30 32 32 33 33 34 35 36 37 37 38 38 39 40 40 42 42 43 44 45 47 48 48 47 46 47 48 48 49 49 49 49 49 50 51 52 53 53
24 23 25 27 28 28 29 30 31 32 33 34 36 36 37 38 38 38 39 41 40 41 41 42 43 44 45 46 47 47 47 48 48 49 49 49 49 50 50 51 52 53 53
23 23 23 24 24 25 27 29 29 29 30 31 34 35 37 37 37 38 39 39 39 39 40 41 41 42 43 44 45 46 46 47 47 47 48 48 49 50 50 51 52 52 52
23 22 22 22 23 23 24 26 28 28 28 29 30 31 33 35 35 36 36 37 38 39 39 39 39 40 41 42 42 43 44 45 45 46 47 48 49 50 50 51 51 51 51
24 23 22 22 22 22 22 23 24 26 27 27 28 29 30 31 32 33 34 34 36 36 37 38 38 38 39 39 40 41 43 44 44 45 46 47 47 48 49 49 49 49 49
23 23 22 22 21 21 21 21 22 23 24 24 26 27 28 29 30 31 32 33 34 34 34 35 36 36 37 37 38 39 40 42 43 44 44 45 46 46 46 46 46 46 46
23 22 22 22 21 20 20 21 22 23 23 24 25 26 26 27 28 29 31 32 32 33 34 34 34 35 35 35 36 38 39 40 41 42 42 43 44 44 44 44 44 44 44
22 22 22 22 22 22 22 22 22 23 24 24 24 25 26 27 27 27 28 29 30 31 32 33 34 35 35 35 36 36 36 36 37 39 40 41 42 42 43 43 44 43 43
23 23 23 23 23 23 23 22 23 24 24 25 25 25 26 27 28 28 28 28 29 29 30 31 32 32 33 34 34 35 35 36 36 37 39 39 40 41 41 42 42 42 42
23 23 23 23 23 23 22 22 22 23 24 25 26 26 26 26 27 27 27 27 28 29 29 30 30 30 30 31 33 34 35 36 36 36 37 38 39 39 39 39 39 40 40
23 23 23 23 23 24 23 23 23 24 24 24 25 26 26 26 26 26 27 27 28 28 28 29 30 30 30 30 31 32 33 33 34 35 35 35 36 37 37 38 39 39 40
23 23 24 24 24 25 25 25 25 25 25 26 26 26 26 27 27 27 28 28 29 29 29 30 31 31 31 31 30 30 30 31 31 32 33 34 35 36 37 38 39 39 39
Wind_Direction
255 254 252 251 251 250 249 248 248 248 246 244 245 244 244 243 242 243 243 244 245 246 247 247 246 246 246 246 247 247 248 248 248 248 249 250 252 251 252 253 254 255 257
255 254 254 252 252 251 250 249 248 248 247 246 246 246 245 244 244 244 244 244 244 246 247 248 248 247 246 247 247 248 248 249 249 249 249 249 251 252 252 253 255 256 257
257 257 255 253 252 251 251 249 248 248 247 246 247 247 246 245 244 244 243 244 244 246 248 250 249 248 248 248 248 248 248 249 250 250 250 251 252 253 254 254 256 257 259
259 257 255 254 253 252 251 249 248 248 247 247 247 247 247 245 244 244 243 244 245 247 248 249 250 250 249 249 249 248 248 249 250 251 251 252 252 253 254 255 257 258 260
260 258 257 256 255 253 251 250 249 249 248 248 248 248 247 246 245 244 244 245 246 247 248 248 250 249 249 249 249 249 249 250 250 251 253 253 253 254 254 255 257 259 260
261 260 259 257 255 254 252 251 250 250 248 248 248 248 248 247 246 245 246 247 247 247 247 249 251 250 249 249 250 249 250 251 251 252 253 254 254 255 255 257 258 259 259
263 261 260 258 255 254 253 252 251 251 249 248 249 248 248 248 247 246 246 247 247 247 248 250 250 249 248 250 250 250 250 251 251 252 253 254 255 256 256 257 258 259 259
262 261 259 257 255 255 253 252 251 250 249 249 249 249 248 247 246 245 246 247 247 248 248 249 249 250 250 250 251 251 251 251 252 253 253 255 255 255 256 257 257 258 260
263 261 260 257 256 254 252 251 250 249 248 247 248 249 248 246 245 245 246 247 248 248 248 249 249 250 250 250 250 250 251 251 251 252 253 254 255 255 256 257 257 257 259
262 261 259 257 256 254 252 251 250 250 249 247 247 248 248 246 245 247 247 248 249 249 250 250 250 250 249 250 250 250 250 252 252 252 253 254 254 255 255 256 257 257 259
262 261 258 257 256 254 253 252 252 251 250 247 246 247 247 247 246 247 249 249 250 250 250 250 249 249 249 250 250 251 251 252 253 253 253 254 254 254 255 255 256 258 259
264 261 258 257 257 254 253 254 254 253 251 248 246 246 246 247 247 247 249 250 250 250 250 250 249 249 250 251 252 252 252 253 253 253 254 254 255 255 255 255 256 258 260
264 263 259 258 256 254 253 254 254 254 251 249 246 246 246 248 248 247 249 250 253 252 252 251 250 249 250 251 252 252 253 253 253 252 253 255 256 255 254 254 256 258 259
265 262 259 258 257 254 253 254 254 253 253 251 247 246 246 247 247 247 249 251 253 253 252 252 250 249 250 250 252 253 253 252 252 252 253 254 255 255 255 255 257 258 259
267 263 259 258 258 256 254 254 253 253 254 252 249 246 246 246 247 249 250 252 253 254 253 252 250 249 249 249 250 251 252 253 253 254 254 254 254 255 256 257 259 260 262
269 266 261 260 258 257 254 252 252 253 254 253 251 249 248 249 250 250 252 253 253 254 254 253 252 251 250 250 251 252 253 253 253 254 254 254 254 256 258 260 260 261 263
269 268 265 263 260 256 253 250 249 251 252 253 253 251 250 251 251 252 253 253 254 255 256 254 253 252 251 251 251 252 253 254 254 254 255 254 254 256 257 259 261 261 262
270 268 267 265 263 260 257 252 249 248 249 250 251 250 250 251 252 253 254 254 254 255 256 254 254 254 253 253 252 252 253 254 254 254 254 254 254 255 257 259 261 262 263
268 266 266 267 265 262 260 255 251 250 250 251 251 250 251 253 253 253 253 254 256 256 256 255 254 253 253 254 254 254 253 254 254 253 254 254 254 255 257 259 261 262 264
267 266 266 266 266 263 261 258 255 253 253 254 252 252 253 254 254 254 254 255 256 256 255 255 253 253 253 252 253 254 255 255 255 254 254 254 255 256 258 259 262 264 265
266 265 265 265 266 264 263 262 259 256 257 257 256 256 256 255 255 255 255 256 256 257 256 254 253 253 253 253 254 256 257 256 256 255 255 255 256 258 259 261 262 264 266
266 265 265 266 265 264 264 263 261 257 256 257 258 260 260 259 257 257 257 257 258 259 258 255 253 254 255 256 257 258 256 255 255 255 256 257 258 259 261 262 263 265 266
265 265 264 264 264 264 263 262 261 259 257 258 258 259 259 258 258 258 258 258 259 258 258 257 256 255 254 255 257 257 257 257 257 258 258 260 261 262 262 262 263 264 266
265 264 263 262 263 263 262 261 261 261 259 258 257 257 258 257 257 257 257 257 257 256 256 256 256 256 258 259 259 259 259 259 259 260 261 261 261 261 261 262 263 264 266
265 263 263 263 263 263 262 262 261 261 261 261 259 258 258 257 257 257 258 257 256 256 256 256 257 258 260 262 262 263 263 263 261 260 261 261 261 261 262 263 264 265 266
268 266 264 264 263 263 262 262 262 262 261 262 261 260 258 257 257 258 259 258 257 257 258 258 257 258 260 261 262 262 263 263 263 262 262 263 263 263 263 264 265 266 266
Height
5574 5577 5580 5582 5585 5588 5592 5595 5599 5602 5606 5610 5614 5618 5622 5626 5630 5634 5638 5642 5646 5650 5654 5658 5663 5667 5670 5675 5678 5682 5685 5689 5694 5698 5701 5704 5707 5710 5712 5715 5717 5720 5722
5562 5565 5567 5570 5572 5576 5579 5582 5586 5589 5593 5597 5600 5604 5609 5613 5617 5621 5625 5629 5633 5637 5641 5645 5649 5653 5658 5662 5666 5670 5673 5677 5681 5685 5689 5692 5695 5698 5700 5703 5705 5708 5710
5551 5553 5555 5557 5560 5563 5566 5569 5572 5576 5580 5583 5587 5591 5595 5600 5603 5607 5612 5616 5620 5625 5628 5632 5636 5639 5644 5648 5652 5656 5660 5664 5668 5672 5676 5679 5683 5685 5688 5691 5693 5695 5698
5539 5541 5543 5545 5547 5550 5553 5556 5559 5562 5566 5570 5574 5578 5582 5586 5590 5594 5598 5603 5607 5611 5615 5619 5622 5626 5631 5635 5638 5643 5647 5651 5655 5658 5663 5666 5670 5673 5675 5678 5681 5683 5685
5528 5529 5530 5532 5534 5537 5539 5543 5546 5549 5552 5556 5560 5564 5568 5572 5576 5580 5584 5589 5593 5598 5601 5605 5608 5612 5616 5620 5624 5629 5633 5637 5641 5645 5649 5653 5657 5660 5663 5666 5668 5670 5672
5517 5517 5518 5519 5521 5523 5526 5529 5532 5536 5539 5543 5546 5550 5554 5558 5562 5566 5570 5575 5579 5583 5587 5591 5594 5598 5602 5606 5610 5615 5619 5623 5628 5632 5636 5640 5644 5647 5650 5652 5655 5657 5660
5505 5505 5506 5507 5509 5511 5513 5516 5519 5522 5526 5529 5533 5537 5541 5545 5549 5553 5556 5560 5564 5569 5573 5576 5580 5583 5587 5592 5596 5600 5604 5609 5614 5618 5622 5626 5630 5634 5637 5639 5641 5643 5646
5494 5494 5494 5495 5497 5499 5501 5504 5507 5510 5513 5516 5520 5524 5528 5532 5535 5539 5543 5546 5550 5555 5559 5562 5565 5569 5573 5578 5582 5586 5590 5595 5601 5605 5609 5613 5615 5618 5621 5624 5627 5629 5632
5484 5484 5484 5485 5486 5488 5491 5493 5495 5498 5501 5504 5508 5511 5515 5520 5523 5527 5530 5533 5537 5541 5544 5547 5551 5555 5560 5564 5568 5573 5577 5581 5585 5589 5593 5597 5600 5603 5606 5610 5612 5615 5618
5474 5474 5474 5475 5477 5478 5481 5483 5485 5488 5490 5493 5497 5500 5504 5508 5512 5515 5517 5520 5525 5528 5531 5535 5538 5542 5546 5549 5553 5558 5563 5567 5571 5575 5578 5582 5585 5589 5592 5595 5598 5601 5603
5464 5464 5465 5466 5467 5469 5471 5473 5475 5477 5480 5483 5486 5489 5493 5497 5500 5504 5506 5508 5512 5515 5518 5522 5525 5529 5532 5536 5540 5545 5550 5553 5556 5560 5563 5567 5570 5574 5577 5580 5584 5586 5589
5455 5455 5456 5457 5458 5459 5461 5463 5465 5467 5470 5472 5476 5479 5482 5485 5489 5492 5495 5497 5500 5503 5506 5510 5513 5516 5519 5523 5527 5531 5535 5538 5542 5546 5549 5553 5556 5560 5563 5566 5569 5571 5574
5446 5446 5447 5447 5448 5450 5452 5454 5455 5457 5459 5462 5465 5469 5472 5475 5478 5481 5484 5486 5488 5490 5493 5497 5500 5503 5507 5510 5514 5517 5521 5524 5528 5532 5536 5540 5543 5546 5549 5551 5554 5556 5559
5437 5438 5438 5439 5440 5441 5442 5444 5446 5448 5450 5453 5456 5459 5462 5465 5468 5470 5472 5474 5475 5477 5480 5483 5486 5490 5493 5497 5501 5504 5507 5511 5514 5519 5523 5526 5529 5532 5534 5537 5540 5542 5544
5430 5430 5430 5431 5432 5432 5433 5435 5437 5439 5441 5444 5447 5449 5452 5456 5458 5460 5462 5463 5465 5466 5468 5470 5473 5476 5480 5484 5487 5491 5494 5497 5501 5505 5509 5512 5515 5518 5521 5523 5525 5527 5529
5423 5423 5423 5423 5424 5425 5426 5427 5428 5431 5432 5434 5437 5440 5442 5445 5448 5450 5451 5453 5454 5455 5456 5458 5461 5464 5467 5471 5475 5478 5481 5484 5487 5491 5495 5498 5501 5504 5507 5509 5511 5512 5514
5417 5416 5417 5417 5417 5417 5418 5420 5421 5423 5424 5426 5428 5430 5433 5435 5437 5439 5441 5442 5443 5444 5446 5448 5450 5453 5456 5459 5463 5466 5468 5471 5474 5477 5481 5484 5487 5490 5492 5494 5496 5497 5499
5410 5410 5410 5410 5410 5410 5411 5412 5414 5415 5417 5419 5420 5422 5424 5425 5427 5429 5431 5432 5434 5435 5436 5438 5440 5442 5445 5448 5451 5454 5456 5459 5461 5464 5467 5470 5473 5476 5478 5480 5481 5483 5485
5403 5403 5403 5403 5404 5404 5404 5405 5406 5408 5409 5411 5412 5414 5415 5417 5418 5420 5421 5423 5424 5425 5427 5428 5430 5432 5435 5437 5440 5442 5445 5447 5449 5452 5454 5457 5459 5462 5464 5466 5468 5469 5471
5396 5396 5397 5397 5397 5397 5398 5399 5399 5401 5402 5403 5405 5406 5407 5409 5410 5412 5413 5414 5415 5416 5418 5419 5421 5423 5425 5427 5429 5431 5433 5435 5437 5439 5441 5444 5446 5449 5451 5453 5455 5457 5458
5390 5390 5390 5390 5391 5391 5391 5392 5393 5394 5395 5396 5397 5398 5399 5401 5402 5403 5404 5405 5406 5407 5409 5410 5412 5413 5415 5417 5419 5420 5421 5423 5425 5427 5429 5432 5434 5436 5438 5440 5442 5443 5445
5383 5383 5384 5384 5384 5384 5385 5385 5386 5387 5387 5388 5389 5390 5391 5392 5393 5395 5396 5397 5397 5398 5399 5401 5402 5404 5406 5407 5409 5410 5411 5413 5414 5416 5419 5421 5422 5424 5426 5428 5429 5431 5432
5376 5376 5377 5377 5377 5377 5378 5378 5379 5379 5380 5381 5381 5383 5384 5384 5385 5386 5387 5388 5389 5390 5391 5392 5393 5395 5396 5398 5399 5400 5402 5403 5404 5406 5408 5409 5411 5412 5414 5416 5417 5419 5420
5369 5369 5369 5370 5370 5370 5371 5371 5371 5372 5372 5373 5374 5374 5375 5376 5377 5378 5379 5380 5381 5382 5383 5384 5385 5387 5388 5389 5390 5391 5392 5393 5394 5395 5397 5398 5399 5401 5402 5404 5405 5407 5408
5362 5362 5362 5363 5363 5363 5364 5364 5365 5365 5365 5366 5366 5367 5367 5368 5369 5370 5371 5372 5373 5374 5375 5376 5377 5378 5379 5380 5381 5381 5382 5383 5384 5385 5386 5388 5389 5390 5392 5393 5394 5395 5396
5355 5355 5355 5355 5356 5356 5356 5357 5357 5357 5358 5358 5358 5359 5359 5360 5361 5362 5363 5363 5364 5365 5366 5367 5368 5369 5370 5371 5371 5372 5373 5374 5374 5376 5377 5378 5379 5380 5381 5382 5382 5383 5384